Location: Lake Almanor
(40.2485°N, 121.1442°W)
Time: 08:12:30
(UTC-08:00)

STARLINK-1085 - Pass Details

Date: 01 February 2020
Orbit: 348 x 350 km, 53.0° (Epoch: 18 February)

Event Time Altitude Azimuth Distance (km) Brightness Sun altitude
Rises 18:39:53 0° 306° (NW) 2,153 7.4 -14.9°
Maximum altitude 18:44:46 58° 222° (SW) 409 3.2 -15.9°
Enters shadow 18:46:23 23° 149° (SSE) 806 4.3 -16.2°
